Location: Unspecified
(0.0000°N, 0.0000°E)
Time: 10:09:58
(UTC+02:00)

NOSS 3-3 (A) - Visible Passes

Search period start: 29 May 2015 00:00
Search period end: 08 June 2015 00:00
Orbit: 955 x 1258 km, 63.4° (Epoch: 30 April)

Date Brightness Start Highest point End Pass type
(mag) Time Alt. Az. Time Alt. Az. Time Alt. Az.
29 May 4.2 05:56:48 51° NW 05:56:48 51° NW 06:02:12 10° N visible
30 May 5.1 05:14:08 38° NNE 05:14:08 38° NNE 05:17:49 10° NNE visible
31 May 6.3 04:31:23 16° NE 04:31:23 16° NE 04:32:45 10° NE visible
31 May 5.6 06:18:53 16° NW 06:18:53 16° NW 06:21:35 10° NNW visible
01 Jun 5.6 05:36:04 22° NNW 05:36:04 22° NNW 05:38:37 10° N visible
02 Jun 6.1 04:53:12 18° NNE 04:53:12 18° NNE 04:54:39 10° NNE visible
